Radiation Dose at Monitoring Post of Fukushima Daini Nuclear Power Station
Date,Time,MP-1(microSv/h),MP-2(microSv/h),MP-3(microSv/h),MP-4(microSv/h),MP-5(microSv/h),MP-6(microSv/h),MP-7(microSv/h),Wind Direction,Wind Velocity(m/s),Rain
2018/02/10,00:00,0.337,0.204,0.337,0.319,0.304,0.169,0.101,-,CALM,No
2018/02/10,00:10,0.337,0.205,0.336,0.320,0.303,0.168,0.101,southwest,0.7,No
2018/02/10,00:20,0.338,0.204,0.336,0.320,0.303,0.168,0.101,south-southwest,0.6,No
2018/02/10,00:30,0.337,0.204,0.335,0.320,0.304,0.169,0.102,southwest,2.7,No
2018/02/10,00:40,0.338,0.205,0.338,0.319,0.304,0.169,0.102,southwest,2.1,No
2018/02/10,00:50,0.338,0.205,0.337,0.321,0.303,0.170,0.102,-,CALM,No
2018/02/10,01:00,0.338,0.204,0.336,0.319,0.302,0.169,0.102,southwest,0.8,No
2018/02/10,01:10,0.337,0.205,0.337,0.319,0.301,0.169,0.101,southwest,0.8,No
2018/02/10,01:20,0.337,0.204,0.337,0.319,0.303,0.169,0.102,southwest,1.1,No
2018/02/10,01:30,0.338,0.205,0.338,0.320,0.303,0.169,0.101,southwest,2.5,No
2018/02/10,01:40,0.338,0.204,0.337,0.319,0.303,0.168,0.102,southwest,2.2,No
2018/02/10,01:50,0.338,0.204,0.336,0.320,0.302,0.169,0.102,southwest,1.2,No
2018/02/10,02:00,0.337,0.205,0.336,0.320,0.305,0.168,0.102,southwest,1.9,No
2018/02/10,02:10,0.337,0.205,0.336,0.319,0.304,0.169,0.102,southwest,2.7,No
2018/02/10,02:20,0.338,0.205,0.337,0.320,0.302,0.168,0.102,south-southwest,3.9,No
2018/02/10,02:30,0.338,0.204,0.337,0.320,0.301,0.169,0.102,southwest,2.7,No
2018/02/10,02:40,0.338,0.205,0.337,0.319,0.303,0.168,0.102,south-southwest,3.2,No
2018/02/10,02:50,0.338,0.204,0.335,0.318,0.304,0.169,0.102,south-southwest,3.2,No
2018/02/10,03:00,0.338,0.204,0.336,0.318,0.303,0.169,0.102,south-southwest,3.5,No
2018/02/10,03:10,0.338,0.205,0.336,0.320,0.302,0.168,0.102,south-southwest,3.1,No
2018/02/10,03:20,0.338,0.205,0.337,0.320,0.302,0.168,0.102,southwest,4.0,No
2018/02/10,03:30,0.338,0.204,0.337,0.320,0.303,0.169,0.101,southwest,2.9,No
2018/02/10,03:40,0.338,0.204,0.336,0.319,0.303,0.169,0.102,west-southwest,1.7,No
2018/02/10,03:50,0.339,0.204,0.335,0.320,0.303,0.169,0.102,west,1.6,No
2018/02/10,04:00,0.337,0.204,0.336,0.321,0.303,0.169,0.102,west,0.9,No
2018/02/10,04:10,0.336,0.204,0.338,0.320,0.304,0.169,0.101,west-southwest,1.5,No
2018/02/10,04:20,0.338,0.205,0.336,0.319,0.303,0.169,0.102,west-southwest,0.6,No
2018/02/10,04:30,0.338,0.206,0.336,0.319,0.302,0.169,0.102,west-southwest,1.0,No
2018/02/10,04:40,0.338,0.206,0.335,0.319,0.302,0.168,0.102,west-southwest,1.5,No
2018/02/10,04:50,0.337,0.204,0.336,0.319,0.303,0.170,0.102,southwest,2.5,No
2018/02/10,05:00,0.337,0.205,0.336,0.319,0.304,0.168,0.102,southwest,1.6,No
2018/02/10,05:10,0.337,0.205,0.336,0.320,0.303,0.169,0.100,west-southwest,2.2,No
2018/02/10,05:20,0.337,0.204,0.337,0.320,0.302,0.168,0.101,southwest,2.5,No
2018/02/10,05:30,0.338,0.204,0.337,0.319,0.304,0.168,0.102,southwest,1.3,No
2018/02/10,05:40,0.337,0.205,0.336,0.320,0.304,0.169,0.102,southwest,1.9,No
2018/02/10,05:50,0.336,0.204,0.336,0.319,0.303,0.169,0.102,west-southwest,1.5,No
2018/02/10,06:00,0.337,0.204,0.338,0.319,0.302,0.168,0.102,west-southwest,1.7,No
2018/02/10,06:10,0.338,0.206,0.337,0.319,0.303,0.168,0.102,west-southwest,1.2,No
2018/02/10,06:20,0.336,0.205,0.337,0.319,0.304,0.168,0.101,southwest,1.6,No
2018/02/10,06:30,0.336,0.205,0.337,0.319,0.303,0.169,0.102,south,0.6,No
2018/02/10,06:40,0.338,0.205,0.335,0.319,0.303,0.169,0.101,south,0.8,No
2018/02/10,06:50,0.337,0.205,0.337,0.319,0.303,0.169,0.102,southwest,1.9,No
2018/02/10,07:00,0.337,0.204,0.336,0.320,0.303,0.169,0.101,southwest,5.3,No
2018/02/10,07:10,0.338,0.204,0.338,0.320,0.303,0.170,0.102,southwest,5.1,No
2018/02/10,07:20,0.337,0.205,0.338,0.320,0.303,0.168,0.101,southwest,3.5,No
2018/02/10,07:30,0.339,0.205,0.337,0.320,0.303,0.168,0.102,west-southwest,4.8,No
2018/02/10,07:40,0.337,0.205,0.337,0.319,0.303,0.168,0.102,west-southwest,4.0,No
2018/02/10,07:50,0.337,0.204,0.337,0.319,0.303,0.169,0.102,west-southwest,4.0,No
2018/02/10,08:00,0.337,0.204,0.335,0.319,0.302,0.169,0.102,west-southwest,4.1,No
2018/02/10,08:10,0.338,0.205,0.336,0.319,0.303,0.168,0.101,southwest,4.3,No
2018/02/10,08:20,0.335,0.203,0.335,0.319,0.304,0.169,0.102,west-southwest,4.2,No
2018/02/10,08:30,0.336,0.204,0.335,0.319,0.304,0.167,0.101,southwest,5.1,No
2018/02/10,08:40,0.338,0.204,0.337,0.319,0.304,0.168,0.102,southwest,5.7,No
2018/02/10,08:50,0.336,0.204,0.335,0.320,0.303,0.169,0.102,south-southwest,2.6,No
2018/02/10,09:00,0.336,0.204,0.335,0.319,0.304,0.169,0.101,south,3.2,No
2018/02/10,09:10,0.336,0.205,0.335,0.319,0.303,0.169,0.101,south-southwest,5.7,No
2018/02/10,09:20,0.338,0.205,0.337,0.320,0.305,0.170,0.101,south-southwest,3.9,No
2018/02/10,09:30,0.335,0.203,0.336,0.319,0.303,0.168,0.101,south-southwest,4.2,No
2018/02/10,09:40,0.337,0.204,0.335,0.319,0.304,0.168,0.100,south,2.7,No
2018/02/10,09:50,0.337,0.204,0.337,0.319,0.304,0.169,0.101,south-southwest,3.7,No
2018/02/10,10:00,0.335,0.204,0.336,0.318,0.303,0.169,0.101,south-southwest,3.7,No
2018/02/10,10:10,0.337,0.205,0.335,0.319,0.305,0.169,0.101,south,5.0,No
2018/02/10,10:20,0.334,0.204,0.336,0.319,0.303,0.168,0.101,south,5.5,No
2018/02/10,10:30,0.338,0.205,0.336,0.318,0.305,0.169,0.100,south-southeast,6.1,No
2018/02/10,10:40,0.336,0.204,0.335,0.321,0.304,0.169,0.101,south,5.4,No
2018/02/10,10:50,0.338,0.205,0.336,0.320,0.304,0.169,0.101,south-southeast,2.6,No
2018/02/10,11:00,0.334,0.205,0.336,0.319,0.305,0.170,0.101,south,6.2,No
2018/02/10,11:10,0.336,0.205,0.336,0.320,0.304,0.170,0.101,south,7.3,No
2018/02/10,11:20,0.336,0.205,0.336,0.318,0.304,0.169,0.100,south,8.9,No
2018/02/10,11:30,0.335,0.205,0.335,0.321,0.303,0.170,0.101,south,8.6,No
2018/02/10,11:40,0.337,0.204,0.337,0.321,0.304,0.168,0.101,south,9.0,No
2018/02/10,11:50,0.335,0.206,0.335,0.318,0.303,0.169,0.101,south,9.7,No
2018/02/10,12:00,0.336,0.205,0.334,0.320,0.305,0.169,0.101,south,9.2,No
2018/02/10,12:10,0.335,0.204,0.335,0.319,0.304,0.168,0.101,south,9.8,No
2018/02/10,12:20,0.338,0.204,0.335,0.321,0.304,0.168,0.101,south,10.6,No
2018/02/10,12:30,0.335,0.205,0.336,0.320,0.305,0.168,0.102,south,12.3,No
2018/02/10,12:40,0.337,0.206,0.335,0.320,0.305,0.168,0.101,south,9.5,No
2018/02/10,12:50,0.336,0.204,0.337,0.320,0.303,0.169,0.101,south,8.4,No
2018/02/10,13:00,0.337,0.205,0.334,0.317,0.304,0.168,0.101,south,11.2,No
2018/02/10,13:10,0.336,0.206,0.337,0.322,0.304,0.169,0.101,south,10.0,No
2018/02/10,13:20,0.335,0.204,0.335,0.318,0.302,0.170,0.101,south,9.6,No
2018/02/10,13:30,0.337,0.206,0.335,0.321,0.304,0.169,0.101,south,10.3,No
2018/02/10,13:40,0.337,0.205,0.334,0.318,0.303,0.168,0.101,south,11.2,No
2018/02/10,13:50,0.336,0.205,0.336,0.319,0.304,0.169,0.101,south,12.2,No
2018/02/10,14:00,0.337,0.205,0.336,0.319,0.303,0.171,0.101,south,12.6,No
2018/02/10,14:10,0.338,0.203,0.336,0.320,0.305,0.169,0.100,south,11.8,No
2018/02/10,14:20,0.335,0.206,0.335,0.322,0.303,0.168,0.101,south,12.2,No
2018/02/10,14:30,0.336,0.205,0.336,0.321,0.306,0.169,0.101,south,12.9,No
2018/02/10,14:40,0.336,0.206,0.338,0.320,0.304,0.170,0.102,south,14.0,No
2018/02/10,14:50,0.337,0.206,0.337,0.321,0.305,0.168,0.102,south,13.1,No
2018/02/10,15:00,0.338,0.205,0.336,0.320,0.306,0.169,0.102,south,12.6,No
2018/02/10,15:10,0.336,0.206,0.337,0.320,0.305,0.170,0.101,south,11.7,No
2018/02/10,15:20,0.338,0.205,0.336,0.320,0.307,0.170,0.101,south-southwest,10.6,No
2018/02/10,15:30,0.336,0.205,0.336,0.321,0.307,0.169,0.101,south-southwest,8.8,No
2018/02/10,15:40,0.337,0.206,0.337,0.323,0.305,0.169,0.100,south-southwest,10.0,No
2018/02/10,15:50,0.338,0.205,0.336,0.321,0.306,0.170,0.101,south,10.3,No
2018/02/10,16:00,0.337,0.204,0.338,0.320,0.304,0.170,0.101,south-southwest,9.0,No
2018/02/10,16:10,0.337,0.205,0.334,0.322,0.305,0.168,0.101,south-southwest,9.3,No
2018/02/10,16:20,0.338,0.206,0.336,0.320,0.304,0.170,0.101,south-southwest,8.9,Yes
2018/02/10,16:30,0.337,0.206,0.336,0.320,0.304,0.168,0.102,south-southwest,8.5,No
2018/02/10,16:40,0.338,0.206,0.336,0.320,0.308,0.170,0.102,south,6.6,No
2018/02/10,16:50,0.338,0.205,0.336,0.322,0.305,0.171,0.101,south-southwest,8.1,No
2018/02/10,17:00,0.337,0.205,0.337,0.320,0.305,0.170,0.101,south-southwest,6.7,No
2018/02/10,17:10,0.339,0.206,0.335,0.322,0.306,0.170,0.101,southwest,2.7,No
2018/02/10,17:20,0.336,0.205,0.336,0.321,0.306,0.170,0.102,west-southwest,1.7,No
2018/02/10,17:30,0.336,0.206,0.337,0.320,0.306,0.169,0.101,south-southwest,2.5,No
2018/02/10,17:40,0.338,0.206,0.336,0.320,0.306,0.169,0.101,south-southwest,6.4,No
2018/02/10,17:50,0.338,0.205,0.336,0.321,0.305,0.170,0.102,south-southwest,6.5,No
2018/02/10,18:00,0.337,0.205,0.338,0.321,0.305,0.169,0.101,south-southwest,7.0,No
2018/02/10,18:10,0.338,0.206,0.337,0.320,0.305,0.169,0.102,southwest,5.3,No
2018/02/10,18:20,0.339,0.205,0.337,0.322,0.304,0.169,0.101,southwest,4.8,No
2018/02/10,18:30,0.338,0.206,0.338,0.321,0.305,0.170,0.101,west-southwest,4.7,No
2018/02/10,18:40,0.338,0.206,0.337,0.320,0.305,0.170,0.101,southwest,4.3,No
2018/02/10,18:50,0.338,0.205,0.337,0.321,0.305,0.169,0.101,west-southwest,3.8,No
2018/02/10,19:00,0.337,0.206,0.338,0.321,0.305,0.169,0.101,west-southwest,1.5,No
2018/02/10,19:10,0.337,0.206,0.336,0.321,0.304,0.169,0.102,south,1.2,No
2018/02/10,19:20,0.339,0.206,0.336,0.320,0.304,0.170,0.102,southeast,2.1,No
2018/02/10,19:30,0.337,0.206,0.338,0.320,0.305,0.170,0.102,east-southeast,2.6,No
2018/02/10,19:40,0.337,0.206,0.336,0.320,0.305,0.170,0.101,south-southeast,3.2,No
2018/02/10,19:50,0.339,0.206,0.336,0.320,0.305,0.170,0.103,south-southeast,2.3,No
2018/02/10,20:00,0.338,0.206,0.337,0.320,0.302,0.169,0.101,south-southeast,1.4,No
2018/02/10,20:10,0.338,0.205,0.337,0.321,0.306,0.169,0.102,southeast,1.0,No
2018/02/10,20:20,0.338,0.207,0.336,0.321,0.303,0.168,0.103,southeast,1.8,No
2018/02/10,20:30,0.339,0.206,0.336,0.320,0.303,0.169,0.101,south,1.4,No
2018/02/10,20:40,0.338,0.205,0.338,0.321,0.306,0.170,0.101,-,CALM,No
2018/02/10,20:50,0.338,0.205,0.337,0.320,0.305,0.169,0.102,southwest,0.9,No
2018/02/10,21:00,0.338,0.207,0.336,0.319,0.305,0.169,0.102,south-southwest,3.1,No
2018/02/10,21:10,0.337,0.206,0.338,0.321,0.304,0.169,0.102,south-southwest,4.2,No
2018/02/10,21:20,0.338,0.205,0.337,0.323,0.304,0.169,0.103,south-southwest,6.0,No
2018/02/10,21:30,0.338,0.206,0.338,0.322,0.303,0.170,0.101,south-southwest,6.3,No
2018/02/10,21:40,0.340,0.207,0.338,0.321,0.305,0.169,0.102,south-southwest,7.2,No
2018/02/10,21:50,0.337,0.204,0.337,0.322,0.304,0.169,0.102,south-southwest,6.5,No
2018/02/10,22:00,0.338,0.205,0.337,0.321,0.304,0.170,0.102,south-southwest,8.1,No
2018/02/10,22:10,0.339,0.206,0.338,0.321,0.305,0.170,0.101,south-southwest,8.4,No
2018/02/10,22:20,0.339,0.206,0.337,0.322,0.304,0.169,0.102,south-southwest,9.2,Yes
2018/02/10,22:30,0.339,0.206,0.337,0.322,0.304,0.170,0.102,south-southwest,8.4,Yes
2018/02/10,22:40,0.339,0.207,0.339,0.324,0.306,0.171,0.104,south-southwest,10.6,Yes
2018/02/10,22:50,0.341,0.208,0.338,0.322,0.306,0.171,0.105,south-southwest,10.4,Yes
2018/02/10,23:00,0.340,0.209,0.339,0.324,0.306,0.172,0.105,south-southwest,9.8,Yes
2018/02/10,23:10,0.340,0.208,0.340,0.324,0.308,0.173,0.105,south-southwest,9.2,Yes
2018/02/10,23:20,0.342,0.209,0.341,0.324,0.309,0.174,0.104,south-southwest,9.5,Yes
2018/02/10,23:30,0.342,0.209,0.340,0.327,0.307,0.172,0.104,south-southwest,10.7,Yes
2018/02/10,23:40,0.341,0.209,0.340,0.326,0.307,0.173,0.105,south-southwest,10.1,Yes
2018/02/10,23:50,0.341,0.208,0.341,0.322,0.308,0.172,0.104,south-southwest,10.3,No
